EW0744 Weather Reports


time (UTC)temp
C
wind
direction
speed
KPH
gust
KPH
rain 1hr
cm
rain 24hr
cm
rain mn
cm
humidity
%
barometer
mb
20260506124519 3 213 0.0 0.0 0.00 0.10 0.00 89 1031.0
20260506123017 3 213 0.0 0.0 0.00 0.10 0.00 88 1030.9
20260506121514 3 213 0.0 1.6 0.00 0.10 0.00 88 1030.7
20260506120011 3 213 0.0 0.0 0.00 0.10 0.00 87 1030.5
20260506114509 3 213 0.0 0.0 0.00 0.10 0.00 86 1030.3
20260506113007 3 213 0.0 0.0 0.00 0.10 0.00 84 1030.0
20260506111503 3 213 0.0 0.0 0.00 0.10 0.00 82 1029.8
20260506110002 3 213 0.0 0.0 0.00 0.10 0.00 82 1029.5
20260506104616 4 213 0.0 0.0 0.00 0.10 0.00 80 1029.3
20260506103055 5 213 0.0 0.0 0.00 0.10 0.00 79 1029.2
20260506101559 5 213 0.0 0.0 0.00 0.10 0.00 78 1029.1
20260506100049 5 213 0.0 0.0 0.00 0.10 0.00 76 1028.8
20260506094554 6 213 0.0 0.0 0.00 0.10 0.00 76 1028.6
20260506093047 6 213 0.0 0.0 0.00 0.10 0.00 75 1028.5
20260506091540 7 213 0.0 0.0 0.00 0.10 0.00 73 1028.3
20260506090040 7 213 0.0 0.0 0.00 0.10 0.00 72 1028.5
20260506084537 7 213 0.0 0.0 0.00 0.10 0.00 72 1028.4
20260506083034 8 213 0.0 0.0 0.00 0.10 0.00 72 1028.5
20260506081533 8 214 0.0 3.2 0.00 0.10 0.00 74 1028.5
20260506073026 8 59 0.0 0.0 0.00 0.10 0.00 78 1028.4
20260506071524 8 59 0.0 0.0 0.00 0.10 0.00 80 1028.3
20260506061517 9 55 0.0 0.0 0.00 0.10 0.00 77 1027.6
20260506044503 11 47 0.0 0.0 0.00 0.10 0.10 71 1026.8
20260506043101 11 47 0.0 0.0 0.00 0.10 0.10 70 1026.5
20260506041607 11 48 0.0 6.4 0.00 0.10 0.10 70 1026.3
20260506040058 11 75 0.0 6.4 0.00 0.10 0.10 67 1026.0
20260506034559 12 27 1.6 8.0 0.00 0.10 0.10 66 1025.6
20260506033105 12 49 1.6 14.5 0.00 0.10 0.10 66 1025.3
20260506031556 12 84 1.6 9.7 0.00 0.10 0.10 71 1024.8
20260506030048 11 65 0.0 4.8 0.00 0.10 0.10 79 1024.2
20260506024548 12 67 0.0 0.0 0.00 0.10 0.10 77 1023.6
20260506023047 12 67 0.0 0.0 0.00 0.10 0.10 75 1023.1
20260506021551 13 67 0.0 0.0 0.00 0.10 0.10 73 1022.6
20260506014552 15 67 0.0 0.0 0.00 0.10 0.10 68 1022.0
20260506013045 15 67 0.0 0.0 0.00 0.10 0.10 65 1022.0
20260506011545 15 67 0.0 0.0 0.00 0.10 0.10 61 1022.1
20260506010047 15 67 0.0 0.0 0.00 0.10 0.10 57 1022.2
20260506004545 16 67 0.0 0.0 0.00 0.10 0.10 53 1021.7
20260506003043 16 67 0.0 3.2 0.00 0.10 0.10 52 1021.6
20260506001604 16 68 0.0 4.8 0.00 0.10 0.10 52 1021.3
20260506000046 16 103 0.0 4.8 0.00 0.10 0.10 52 1021.2
20260505234547 16 58 0.0 1.6 0.00 0.10 0.10 53 1021.5
20260505233040 16 57 0.0 4.8 0.00 0.10 0.10 54 1021.4
20260505231548 16 44 1.6 12.9 0.00 0.10 0.10 54 1021.6
20260505230038 16 71 4.8 16.1 0.00 0.10 0.10 55 1021.7
20260505224540 16 56 1.6 17.7 0.00 0.10 0.10 55 1021.6
20260505223042 16 37 3.2 16.1 0.00 0.10 0.10 54 1021.9
20260505220039 16 23 4.8 20.9 0.00 0.10 0.10 62 1022.2
20260505214551 15 36 1.6 17.7 0.00 0.10 0.10 65 1022.6
20260505213049 16 20 1.6 8.0 0.00 0.10 0.10 59 1022.3
20260505211532 16 59 0.0 4.8 0.00 0.10 0.10 56 1022.0
20260505210032 17 64 3.2 9.7 0.00 0.10 0.10 54 1022.0
20260505204531 17 66 1.6 8.0 0.00 0.10 0.10 56 1022.1
20260505203028 17 283 0.0 6.4 0.00 0.10 0.10 53 1022.6
20260505201543 18 41 8.0 20.9 0.00 0.10 0.10 53 1022.5
20260505200028 18 54 6.4 12.9 0.00 0.10 0.10 54 1022.3
20260505194523 17 279 0.0 6.4 0.00 0.10 0.10 57 1022.2
20260505193038 16 53 3.2 12.9 0.00 0.10 0.10 64 1022.5
20260505191522 15 33 1.6 12.9 0.00 0.10 0.10 69 1022.8
20260505190029 15 30 3.2 16.1 0.00 0.10 0.10 72 1022.9
20260505184524 15 25 3.2 9.7 0.00 0.10 0.10 67 1022.8
20260505183027 16 19 3.2 9.7 0.00 0.10 0.10 63 1022.8
20260505181521 16 355 0.0 4.8 0.00 0.10 0.10 61 1022.7
20260505180030 16 76 0.0 1.6 0.00 0.10 0.10 59 1022.9
20260505174522 16 74 3.2 6.4 0.00 0.10 0.10 60 1022.8
20260505173014 15 77 0.0 8.0 0.00 0.10 0.10 67 1023.0
20260505171523 15 161 0.0 4.8 0.00 0.10 0.10 70 1023.2
20260505170013 13 104 0.0 4.8 0.03 0.10 0.10 75 1023.3
20260505164511 12 101 0.0 1.6 0.03 0.10 0.10 80 1023.2
20260505163009 11 101 0.0 3.2 0.08 0.10 0.10 85 1023.3
20260505161504 11 101 0.0 0.0 0.05 0.08 0.08 86 1023.5
20260505160104 11 94 0.0 3.2 0.05 0.08 0.08 83 1023.5
20260505153105 12 76 3.2 14.5 0.03 0.03 0.03 72 1023.4
20260505151552 12 83 0.0 4.8 0.03 0.03 0.03 69 1023.2
20260505150108 12 92 0.0 9.7 0.03 0.03 0.03 70 1023.3